Flag for Germany Weather past 2 weeks in Wiesbaden, Hesse, Germany

Now
66 °F

Overcast.


Feels Like: 66 °F
Forecast: 60 / 78 °F
Wind: 2 mph from Northwest

Location: Wiesbaden Airport

Current Time: Jul 31, 2014 at 1:55:48 AM

Latest Report: Jul 31, 2014 at 12:58 AM


Visibility: N/A

Pressure: 29.96 "Hg

Humidity: 78%

Dew point: 59 °F

Location of WiesbadenLocation

Historic Weather in Wiesbaden — Graph

°F

Wiesbaden temperature yesterday

Maximum temperature yesterday: 73 °F (at 6:55 PM)
Minimum temperature yesterday: 66 °F (at 4:55 AM)
Average temperature yesterday: 69 °F

Past Weeks' High & Low Weather Summary

 TemperatureHumidityPressure
High92 °F (Jul 19, 4:58 PM)100% (Jul 21, 2:58 AM)30.19 "Hg (Jul 21, 2:58 AM)
Low59 °F (Jul 17, 4:58 AM)25% (Jul 18, 6:58 PM)29.72 "Hg (Jul 29, 5:57 PM)
Average73 °F67%29.93 "Hg
* Reported Jul 16 4:55 AM — Jul 31 12:58 AM, Wiesbaden, Weather by CustomWeather, © 2014

Note: Actual official high and low records may vary slightly from our data, if they occured in-between our weather recording intervals... More about our weather records

Advertising

Wiesbaden weather history for previous 24 hours

 ConditionsComfort  
Time TempWeatherWind HumidityBarometerVisibility
12:58 AM
Jul 31
66 °FOvercast.2 mph78%29.96 "HgN/A
11:58 PM
Jul 30
67 °FOvercast.1 mph76%29.96 "HgN/A
10:58 PM67 °FOvercast.2 mph79%29.95 "HgN/A
9:58 PM70 °FOvercast.2 mph69%29.94 "HgN/A
8:58 PM71 °FOvercast.5 mph65%29.92 "HgN/A
8:55 PM72 °FOvercast.5 mph100%29.92 "HgN/A
7:55 PM73 °FOvercast.5 mph61%29.90 "HgN/A
6:55 PM73 °FOvercast.9 mph65%29.88 "HgN/A
5:58 PM72 °FOvercast.9 mph69%29.88 "HgN/A
4:55 PM72 °FMore clouds than sun.8 mph73%29.88 "HgN/A
3:55 PM70 °FOvercast.2 mph78%29.88 "HgN/A
2:55 PM70 °FOvercast.6 mph78%29.86 "HgN/A
1:55 PM68 °FMostly cloudy.8 mph83%29.85 "HgN/A
12:57 PM68 °FOvercast.10 mph83%29.84 "HgN/A
11:58 AM68 °FMostly cloudy.10 mph88%29.84 "HgN/A
10:55 AM68 °FDrizzle. More clouds than sun.8 mph88%29.82 "HgN/A
9:55 AM68 °FOvercast.3 mph94%29.81 "HgN/A
8:55 AM68 °FLight rain. Fog.No wind94%29.80 "Hg2 mi
7:56 AM66 °FLight rain. Fog.No wind94%29.78 "Hg5 mi
6:55 AM66 °FLight rain. Fog.No wind94%29.78 "Hg6 mi
5:58 AM66 °FRain. Overcast.5 mph94%29.76 "HgN/A
4:55 AM66 °FLight rain. Partly cloudy.3 mph98%29.75 "HgN/A
Weather by CustomWeather, © 2014

See weather overviewHow to use our weather pages